| time (UTC) | temp F | wind direction | speed MPH | gust MPH | rain 1hr in | rain 24hr in | rain mn in | humidity % | barometer mb |
| 20260502221108 | 51 | 0.0 | 0.0 | 0.01 | 0.21 | 0.21 | 94 | 1008.1 | |
| 20260502220104 | 51 | 0.0 | 0.0 | 0.01 | 0.21 | 0.21 | 93 | 1008.1 | |
| 20260502215100 | 51 | 0 | 2.0 | 3.0 | 0.02 | 0.21 | 0.21 | 94 | 1008.3 |
| 20260502214056 | 51 | 0 | 3.0 | 4.0 | 0.04 | 0.21 | 0.21 | 94 | 1008.3 |
| 20260502213152 | 51 | 3.0 | 4.0 | 0.05 | 0.21 | 0.21 | 95 | 1008.3 | |
| 20260502212148 | 51 | 0 | 3.0 | 4.0 | 0.04 | 0.20 | 0.20 | 95 | 1008.4 |
| 20260502211143 | 51 | 0 | 3.0 | 4.0 | 0.05 | 0.20 | 0.20 | 95 | 1008.5 |
| 20260502210138 | 52 | 0 | 3.0 | 4.0 | 0.06 | 0.20 | 0.20 | 95 | 1008.5 |
| 20260502205134 | 52 | 0 | 3.0 | 4.0 | 0.05 | 0.19 | 0.19 | 95 | 1008.5 |
| 20260502204149 | 52 | 0 | 3.0 | 4.0 | 0.05 | 0.18 | 0.18 | 94 | 1008.7 |
| 20260502203125 | 52 | 0.0 | 0.0 | 0.05 | 0.17 | 0.17 | 94 | 1008.6 | |
| 20260502202121 | 52 | 0.0 | 0.0 | 0.06 | 0.17 | 0.17 | 93 | 1008.7 | |
| 20260502201116 | 52 | 0.0 | 0.0 | 0.05 | 0.15 | 0.15 | 93 | 1008.8 | |
| 20260502200111 | 52 | 0.0 | 0.0 | 0.05 | 0.14 | 0.14 | 92 | 1008.8 | |
| 20260502195106 | 52 | 0.0 | 0.0 | 0.06 | 0.14 | 0.14 | 91 | 1008.9 | |
| 20260502194101 | 52 | 0.0 | 1.0 | 0.07 | 0.13 | 0.13 | 91 | 1008.9 | |
| 20260502193056 | 52 | 315 | 0.0 | 2.0 | 0.07 | 0.12 | 0.12 | 90 | 1009.0 |
| 20260502192052 | 53 | 0.0 | 0.0 | 0.07 | 0.11 | 0.11 | 89 | 1009.1 | |
| 20260502191208 | 53 | 0.0 | 0.0 | 0.08 | 0.11 | 0.11 | 87 | 1009.1 | |
| 20260502190144 | 53 | 0.0 | 0.0 | 0.07 | 0.09 | 0.09 | 85 | 1009.3 | |
| 20260502185139 | 53 | 0.0 | 0.0 | 0.07 | 0.08 | 0.08 | 84 | 1009.4 | |
| 20260502184134 | 53 | 156 | 1.0 | 2.0 | 0.05 | 0.06 | 0.06 | 83 | 1009.4 |
| 20260502183149 | 54 | 135 | 2.0 | 4.0 | 0.04 | 0.05 | 0.05 | 82 | 1009.4 |
| 20260502182125 | 54 | 146 | 3.0 | 4.0 | 0.04 | 0.05 | 0.04 | 81 | 1009.5 |
| 20260502181121 | 54 | 148 | 3.0 | 4.0 | 0.02 | 0.04 | 0.02 | 80 | 1009.6 |
| 20260502180138 | 55 | 138 | 3.0 | 4.0 | 0.02 | 0.04 | 0.02 | 76 | 1009.5 |
| 20260502164143 | 59 | 90 | 3.0 | 5.0 | 0.00 | 0.01 | 0.00 | 64 | 1009.7 |
| 20260502163139 | 59 | 90 | 3.0 | 4.0 | 0.00 | 0.01 | 0.00 | 63 | 1009.7 |
| 20260502162135 | 60 | 90 | 4.0 | 6.0 | 0.00 | 0.01 | 0.00 | 61 | 1009.7 |
| 20260502161130 | 60 | 90 | 4.0 | 4.0 | 0.00 | 0.01 | 0.00 | 61 | 1009.8 |
| 20260502160125 | 0 | 0.0 | 0.0 | 0.00 | 0.01 | 0.00 | 1009.9 | ||
| 20260502152145 | 62 | 3.0 | 3.0 | 0.00 | 0.01 | 0.00 | 58 | 1010.3 | |
| 20260502151102 | 0 | 0.0 | 0.0 | 0.00 | 0.01 | 0.00 | 1010.4 | ||
| 20260502130105 | 66 | 233 | 2.0 | 4.0 | 0.00 | 0.01 | 0.00 | 51 | 1011.9 |
| 20260502123053 | 63 | 225 | 3.0 | 5.0 | 0.00 | 0.01 | 0.00 | 57 | 1012.1 |
| 20260502122049 | 62 | 153 | 2.0 | 4.0 | 0.00 | 0.01 | 0.00 | 55 | 1012.3 |
| 20260502121044 | 64 | 180 | 1.0 | 3.0 | 0.00 | 0.01 | 0.00 | 52 | 1012.4 |
| 20260502115154 | 64 | 7 | 4.0 | 4.0 | 0.00 | 0.01 | 0.00 | 54 | 1012.7 |
| 20260502114149 | 62 | 99 | 2.0 | 4.0 | 0.00 | 0.01 | 0.00 | 55 | 1012.8 |
| 20260502113124 | 64 | 78 | 1.0 | 2.0 | 0.00 | 0.01 | 0.00 | 54 | 1013.0 |
| 20260502112120 | 61 | 217 | 5.0 | 6.0 | 0.00 | 0.01 | 0.00 | 59 | 1013.1 |
| 20260502111116 | 61 | 216 | 4.0 | 6.0 | 0.00 | 0.01 | 0.00 | 60 | 1013.2 |
| 20260502110112 | 61 | 90 | 3.0 | 5.0 | 0.00 | 0.01 | 0.00 | 59 | 1013.4 |
| 20260502105107 | 62 | 90 | 3.0 | 4.0 | 0.00 | 0.01 | 0.00 | 60 | 1013.3 |
| 20260502104103 | 61 | 168 | 2.0 | 4.0 | 0.00 | 0.01 | 0.00 | 63 | 1013.4 |
| 20260502103058 | 59 | 225 | 1.0 | 2.0 | 0.00 | 0.02 | 0.00 | 65 | 1013.3 |
| 20260502102053 | 58 | 297 | 1.0 | 2.0 | 0.00 | 0.05 | 0.00 | 65 | 1013.4 |
| 20260502101049 | 57 | 225 | 3.0 | 4.0 | 0.00 | 0.06 | 0.00 | 66 | 1013.4 |
| 20260502091124 | 56 | 243 | 2.0 | 4.0 | 0.00 | 0.09 | 0.00 | 77 | 1014.1 |
| 20260502090120 | 53 | 250 | 2.0 | 7.0 | 0.00 | 0.09 | 0.00 | 79 | 1014.1 |
| 20260502071030 | 51 | 225 | 0.0 | 3.0 | 0.00 | 0.09 | 0.00 | 88 | 1014.2 |
| 20260502070126 | 50 | 225 | 1.0 | 3.0 | 0.00 | 0.09 | 0.00 | 88 | 1014.1 |
| 20260502065121 | 49 | 0.0 | 0.0 | 0.00 | 0.09 | 0.00 | 88 | 1014.1 | |
| 20260502064116 | 49 | 219 | 1.0 | 4.0 | 0.00 | 0.09 | 0.00 | 89 | 1014.1 |
| 20260502063111 | 49 | 206 | 2.0 | 2.0 | 0.00 | 0.09 | 0.00 | 89 | 1014.1 |
| 20260502062127 | 49 | 225 | 4.0 | 7.0 | 0.00 | 0.09 | 0.00 | 90 | 1014.2 |
| 20260502061123 | 49 | 0.0 | 0.0 | 0.00 | 0.09 | 0.00 | 90 | 1014.1 | |
| 20260502060059 | 49 | 0.0 | 0.0 | 0.00 | 0.09 | 0.00 | 90 | 1014.0 | |
| 20260502055055 | 49 | 248 | 4.0 | 4.0 | 0.00 | 0.09 | 0.00 | 90 | 1014.0 |
| 20260502054051 | 48 | 0.0 | 0.0 | 0.00 | 0.09 | 0.00 | 90 | 1013.9 | |
| 20260502053047 | 48 | 0.0 | 0.0 | 0.00 | 0.09 | 0.00 | 90 | 1013.9 | |
| 20260502052123 | 48 | 0.0 | 0.0 | 0.00 | 0.09 | 0.00 | 90 | 1014.0 | |
| 20260502051058 | 48 | 0.0 | 0.0 | 0.00 | 0.09 | 0.00 | 90 | 1014.0 | |
| 20260502050032 | 48 | 0.0 | 0.0 | 0.00 | 0.09 | 0.00 | 91 | 1013.9 | |
| 20260502045048 | 48 | 0.0 | 1.0 | 0.00 | 0.09 | 0.00 | 92 | 1014.0 | |
| 20260502044025 | 49 | 0.0 | 0.0 | 0.00 | 0.09 | 0.00 | 94 | 1014.0 | |
| 20260502043121 | 48 | 270 | 1.0 | 3.0 | 0.00 | 0.09 | 0.00 | 96 | 1014.0 |
| 20260502042116 | 48 | 0.0 | 0.0 | 0.00 | 0.09 | 0.00 | 97 | 1014.1 | |
| 20260502041111 | 48 | 236 | 1.0 | 2.0 | 0.00 | 0.09 | 0.00 | 97 | 1014.1 |
| 20260502040106 | 47 | 246 | 2.0 | 4.0 | 0.00 | 0.09 | 0.00 | 97 | 1014.2 |
| 20260502035101 | 47 | 0.0 | 0.0 | 0.00 | 0.09 | 0.00 | 97 | 1014.3 | |
| 20260502034056 | 47 | 0.0 | 0.0 | 0.00 | 0.09 | 0.00 | 97 | 1014.4 | |
| 20260502033051 | 47 | 0.0 | 0.0 | 0.00 | 0.09 | 0.00 | 97 | 1014.5 | |
| 20260502032107 | 47 | 248 | 2.0 | 4.0 | 0.00 | 0.09 | 0.00 | 97 | 1014.5 |
| 20260502031043 | 47 | 225 | 5.0 | 6.0 | 0.00 | 0.09 | 0.00 | 97 | 1014.6 |
| 20260502030039 | 46 | 241 | 6.0 | 8.0 | 0.00 | 0.09 | 0.00 | 97 | 1014.7 |
| 20260502025034 | 46 | 244 | 7.0 | 8.0 | 0.00 | 0.09 | 0.00 | 97 | 1014.8 |
| 20260502024029 | 45 | 229 | 6.0 | 8.0 | 0.00 | 0.09 | 0.00 | 98 | 1014.8 |
| 20260502023024 | 45 | 225 | 2.0 | 3.0 | 0.00 | 0.09 | 0.00 | 99 | 1015.0 |
| 20260502022020 | 45 | 0.0 | 0.0 | 0.00 | 0.09 | 0.00 | 97 | 1015.0 | |
| 20260502021116 | 45 | 0.0 | 0.0 | 0.00 | 0.09 | 0.00 | 99 | 1015.0 | |
| 20260502020112 | 45 | 0.0 | 0.0 | 0.00 | 0.09 | 0.00 | 99 | 1015.1 | |
| 20260502015108 | 45 | 0.0 | 0.0 | 0.00 | 0.09 | 0.00 | 99 | 1015.2 | |
| 20260502014104 | 45 | 0.0 | 0.0 | 0.00 | 0.09 | 0.00 | 99 | 1015.4 | |
| 20260502013100 | 45 | 0.0 | 0.0 | 0.00 | 0.09 | 0.00 | 99 | 1015.4 | |
| 20260502012056 | 45 | 0.0 | 0.0 | 0.00 | 0.09 | 0.00 | 99 | 1015.5 | |
| 20260502011051 | 45 | 0.0 | 0.0 | 0.00 | 0.09 | 0.00 | 99 | 1015.6 | |
| 20260502010046 | 46 | 270 | 1.0 | 2.0 | 0.00 | 0.09 | 0.00 | 95 | 1015.7 |
| 20260502005041 | 45 | 0.0 | 0.0 | 0.00 | 0.09 | 0.00 | 99 | 1015.8 | |
| 20260502004038 | 45 | 0.0 | 0.0 | 0.00 | 0.09 | 0.00 | 95 | 1015.9 | |
| 20260502003034 | 45 | 0.0 | 0.0 | 0.00 | 0.09 | 0.00 | 98 | 1015.9 | |
| 20260502002150 | 45 | 0.0 | 0.0 | 0.00 | 0.09 | 0.00 | 97 | 1016.0 | |
| 20260502001125 | 45 | 225 | 1.0 | 2.0 | 0.00 | 0.09 | 0.00 | 97 | 1016.2 |
| 20260502000120 | 46 | 225 | 3.0 | 4.0 | 0.00 | 0.09 | 0.00 | 92 | 1016.2 |
| 20260501235134 | 45 | 225 | 3.0 | 4.0 | 0.00 | 0.09 | 0.00 | 93 | 1016.2 |
| 20260501234109 | 45 | 225 | 3.0 | 4.0 | 0.00 | 0.09 | 0.00 | 93 | 1016.3 |
| 20260501233105 | 46 | 225 | 2.0 | 4.0 | 0.00 | 0.09 | 0.00 | 93 | 1016.3 |
| 20260501232100 | 47 | 267 | 4.0 | 6.0 | 0.00 | 0.09 | 0.00 | 93 | 1016.4 |
| 20260501231057 | 47 | 232 | 3.0 | 4.0 | 0.00 | 0.09 | 0.00 | 92 | 1016.4 |
| 20260501230153 | 47 | 232 | 5.0 | 6.0 | 0.00 | 0.09 | 0.00 | 92 | 1016.4 |
| 20260501225208 | 46 | 225 | 5.0 | 5.0 | 0.00 | 0.09 | 0.09 | 91 | 1016.4 |
| 20260501224144 | 47 | 251 | 3.0 | 4.0 | 0.00 | 0.09 | 0.09 | 91 | 1016.4 |
| 20260501223158 | 47 | 270 | 4.0 | 4.0 | 0.00 | 0.09 | 0.09 | 91 | 1016.4 |
| 20260501222134 | 47 | 270 | 2.0 | 4.0 | 0.00 | 0.09 | 0.09 | 90 | 1016.5 |